Flag Weather past 2 weeks in Guatemala, Guatemala

Now
79 °F

Scattered clouds.


Feels Like: 80 °F
Forecast: N/A
Wind: 12 mph from North

Location: Guatemala Aeropuertola Aurora

Current Time: Nov 25, 2014 at 3:11:16 PM

Latest Report: Nov 25, 2014 at 2:00 PM


Visibility: N/A

Pressure: 30.21 "Hg

Humidity: 48%

Dew point: 57 °F

Location of GuatemalaLocation

Historic Weather in Guatemala — Graph

°F

Guatemala temperature yesterday

Maximum temperature yesterday: 79 °F (at 12:00 PM)
Minimum temperature yesterday: 59 °F (at 6:00 AM)
Average temperature yesterday: 68 °F

Past Weeks' High & Low Weather Summary

 TemperatureHumidityPressure
High81 °F (Nov 23, 1:00 PM)100% (Nov 12, 6:00 AM)30.39 "Hg (Nov 12, 6:00 AM)
Low55 °F (Nov 11, 6:00 AM)46% (Nov 14, 11:00 AM)30.12 "Hg (Nov 23, 3:00 PM)
Average66 °F79%30.28 "Hg
* Reported Nov 10 2:00 PM — Nov 25 2:00 PM, Guatemala, Weather by CustomWeather, © 2014

Note: Actual official high and low records may vary slightly from our data, if they occured in-between our weather recording intervals... More about our weather records

Advertising

Guatemala weather history for previous 24 hours

 ConditionsComfort  
Time TempWeatherWind HumidityBarometerVisibility
2:00 PM
Nov 25
79 °FScattered clouds.12 mph48%30.21 "HgN/A
1:00 PM79 °FPassing clouds.18 mph51%30.24 "HgN/A
12:00 PM77 °FScattered clouds.12 mph54%30.27 "HgN/A
11:00 AM73 °FPassing clouds.16 mph65%30.30 "HgN/A
10:00 AM70 °FBroken clouds.12 mph78%30.33 "HgN/A
9:00 AM68 °FBroken clouds.12 mph83%30.30 "HgN/A
8:00 AM66 °FBroken clouds.12 mph88%30.30 "HgN/A
7:00 AM64 °FScattered clouds.14 mph94%30.27 "Hg5 mi
6:00 AM64 °FPassing clouds.9 mph94%30.27 "Hg5 mi
5:00 AM64 °FPassing clouds.9 mph94%30.24 "Hg5 mi
4:00 AM63 °FPassing clouds.9 mph94%30.24 "HgN/A
3:00 AM64 °FPassing clouds.12 mph88%30.24 "Hg5 mi
2:00 AM66 °FFog.7 mph100%30.24 "Hg2 mi
1:00 AM66 °FFog.5 mph100%30.24 "Hg2 mi
12:00 AM66 °FFog.5 mph94%30.24 "Hg2 mi
11:00 PM
Nov 24
66 °FFog.No wind94%30.27 "Hg2 mi
10:00 PM66 °FFog.No wind94%30.30 "Hg2 mi
9:00 PM66 °FFog.No wind88%30.27 "Hg2 mi
8:00 PM66 °FFog.5 mph88%30.24 "Hg2 mi
7:00 PM66 °FFog.7 mph94%30.24 "Hg2 mi
6:00 PM70 °FPassing clouds.7 mph78%30.21 "Hg4 mi
5:00 PM72 °FLight rain. Scattered clouds.9 mph78%30.18 "Hg4 mi
4:00 PM73 °FRain showers. Scattered clouds.12 mph69%30.18 "Hg5 mi
3:00 PM75 °FScattered clouds.12 mph69%30.18 "HgN/A
Weather by CustomWeather, © 2014

See weather overviewHow to use our weather pages